| time (UTC) | temp F | wind direction | speed MPH | gust MPH | rain 1hr in | rain 24hr in | rain mn in | humidity % | barometer mb |
| 20260502214355 | 51 | 0 | 2.0 | 5.0 | 0.00 | 0.00 | 0.00 | 67 | 1022.1 |
| 20260502213659 | 51 | 0 | 2.0 | 4.0 | 0.00 | 0.00 | 0.00 | 68 | 1022.1 |
| 20260502212306 | 51 | 0 | 3.0 | 4.0 | 0.00 | 0.00 | 0.00 | 69 | 1022.2 |
| 20260502211609 | 51 | 0 | 3.0 | 4.0 | 0.00 | 0.00 | 0.00 | 70 | 1022.3 |
| 20260502210913 | 51 | 0 | 3.0 | 5.0 | 0.00 | 0.00 | 0.00 | 71 | 1022.4 |
| 20260502210216 | 51 | 0 | 2.0 | 4.0 | 0.00 | 0.00 | 0.00 | 72 | 1022.4 |
| 20260502205520 | 51 | 0 | 2.0 | 4.0 | 0.00 | 0.00 | 0.00 | 73 | 1022.5 |
| 20260502204823 | 51 | 0 | 2.0 | 4.0 | 0.00 | 0.00 | 0.00 | 73 | 1022.5 |
| 20260502204127 | 51 | 0 | 2.0 | 4.0 | 0.00 | 0.00 | 0.00 | 73 | 1022.6 |
| 20260502203431 | 51 | 0 | 2.0 | 4.0 | 0.00 | 0.00 | 0.00 | 73 | 1022.7 |
| 20260502202734 | 51 | 0 | 2.0 | 3.0 | 0.00 | 0.00 | 0.00 | 73 | 1022.7 |
| 20260502202038 | 51 | 0 | 2.0 | 3.0 | 0.00 | 0.00 | 0.00 | 72 | 1022.8 |
| 20260502201341 | 51 | 0 | 2.0 | 3.0 | 0.00 | 0.00 | 0.00 | 71 | 1022.8 |
| 20260502200645 | 51 | 0 | 2.0 | 3.0 | 0.00 | 0.00 | 0.00 | 68 | 1022.8 |
| 20260502195948 | 51 | 0 | 2.0 | 3.0 | 0.00 | 0.00 | 0.00 | 64 | 1022.8 |
| 20260502195251 | 52 | 0 | 2.0 | 3.0 | 0.00 | 0.00 | 0.00 | 60 | 1022.9 |
| 20260502194555 | 52 | 0 | 1.0 | 2.0 | 0.00 | 0.00 | 0.00 | 59 | 1022.9 |
| 20260502193858 | 52 | 0 | 1.0 | 2.0 | 0.00 | 0.00 | 0.00 | 58 | 1022.9 |
| 20260502193202 | 52 | 0 | 1.0 | 2.0 | 0.00 | 0.00 | 0.00 | 57 | 1023.1 |
| 20260502192505 | 52 | 0 | 1.0 | 2.0 | 0.00 | 0.00 | 0.00 | 57 | 1023.1 |
| 20260502191808 | 53 | 0 | 1.0 | 1.0 | 0.00 | 0.00 | 0.00 | 57 | 1023.1 |
| 20260502191112 | 53 | 0 | 1.0 | 2.0 | 0.00 | 0.00 | 0.00 | 57 | 1023.0 |
| 20260502190415 | 53 | 0 | 1.0 | 2.0 | 0.00 | 0.00 | 0.00 | 57 | 1023.0 |
| 20260502185719 | 53 | 0 | 1.0 | 1.0 | 0.00 | 0.00 | 0.00 | 59 | 1023.0 |
| 20260502185022 | 53 | 0 | 1.0 | 1.0 | 0.00 | 0.00 | 0.00 | 61 | 1023.0 |
| 20260502184325 | 52 | 0 | 0.0 | 1.0 | 0.00 | 0.00 | 0.00 | 63 | 1023.0 |
| 20260502183629 | 53 | 0 | 0.0 | 1.0 | 0.00 | 0.00 | 0.00 | 64 | 1023.0 |
| 20260502182932 | 52 | 0 | 1.0 | 1.0 | 0.00 | 0.00 | 0.00 | 66 | 1023.0 |
| 20260502182236 | 52 | 0 | 1.0 | 2.0 | 0.00 | 0.00 | 0.00 | 67 | 1023.0 |
| 20260502181539 | 52 | 0 | 0.0 | 1.0 | 0.00 | 0.00 | 0.00 | 61 | 1022.9 |
| 20260502180842 | 53 | 0 | 0.0 | 1.0 | 0.00 | 0.00 | 0.00 | 59 | 1022.9 |
| 20260502180146 | 54 | 0 | 0.0 | 1.0 | 0.00 | 0.00 | 0.00 | 55 | 1022.8 |
| 20260502163819 | 63 | 0 | 0.0 | 1.0 | 0.00 | 0.00 | 0.00 | 41 | 1023.4 |
| 20260502163122 | 63 | 0 | 1.0 | 2.0 | 0.00 | 0.00 | 0.00 | 42 | 1023.4 |
| 20260502162425 | 63 | 0 | 1.0 | 1.0 | 0.00 | 0.00 | 0.00 | 40 | 1023.5 |
| 20260502161727 | 62 | 0 | 1.0 | 3.0 | 0.00 | 0.00 | 0.00 | 39 | 1023.6 |
| 20260502161030 | 63 | 0 | 1.0 | 3.0 | 0.00 | 0.00 | 0.00 | 39 | 1023.6 |
| 20260502160333 | 63 | 0 | 1.0 | 3.0 | 0.00 | 0.00 | 0.00 | 38 | 1023.8 |
| 20260502152146 | 68 | 0 | 1.0 | 2.0 | 0.00 | 0.00 | 0.00 | 33 | 1024.1 |
| 20260502151448 | 69 | 0 | 1.0 | 3.0 | 0.00 | 0.00 | 0.00 | 33 | 1024.2 |
| 20260502150750 | 69 | 0 | 1.0 | 2.0 | 0.00 | 0.00 | 0.00 | 33 | 1024.3 |
| 20260502130227 | 64 | 0 | 2.0 | 3.0 | 0.00 | 0.00 | 0.00 | 41 | 1025.3 |
| 20260502123437 | 66 | 0 | 2.0 | 3.0 | 0.00 | 0.00 | 0.00 | 40 | 1025.6 |
| 20260502122739 | 68 | 0 | 0.0 | 1.0 | 0.00 | 0.00 | 0.00 | 39 | 1025.5 |
| 20260502121343 | 65 | 0 | 1.0 | 2.0 | 0.00 | 0.00 | 0.00 | 40 | 1025.8 |
| 20260502120646 | 65 | 0 | 1.0 | 2.0 | 0.00 | 0.00 | 0.00 | 41 | 1025.9 |
| 20260502115250 | 64 | 0 | 1.0 | 2.0 | 0.00 | 0.00 | 0.00 | 43 | 1026.0 |
| 20260502114553 | 63 | 0 | 2.0 | 3.0 | 0.00 | 0.00 | 0.00 | 45 | 1026.1 |
| 20260502113158 | 64 | 0 | 1.0 | 3.0 | 0.00 | 0.00 | 0.00 | 44 | 1026.3 |
| 20260502112500 | 64 | 0 | 1.0 | 2.0 | 0.00 | 0.00 | 0.00 | 43 | 1026.3 |
| 20260502111803 | 63 | 0 | 1.0 | 2.0 | 0.00 | 0.00 | 0.00 | 41 | 1026.4 |
| 20260502111105 | 62 | 0 | 2.0 | 3.0 | 0.00 | 0.00 | 0.00 | 47 | 1026.5 |
| 20260502110408 | 62 | 0 | 2.0 | 5.0 | 0.00 | 0.00 | 0.00 | 45 | 1026.6 |
| 20260502105013 | 63 | 0 | 1.0 | 3.0 | 0.00 | 0.00 | 0.00 | 39 | 1026.6 |
| 20260502104315 | 64 | 0 | 1.0 | 3.0 | 0.00 | 0.00 | 0.00 | 39 | 1026.6 |
| 20260502103617 | 65 | 0 | 1.0 | 1.0 | 0.00 | 0.00 | 0.00 | 46 | 1026.6 |
| 20260502102920 | 63 | 0 | 1.0 | 1.0 | 0.00 | 0.00 | 0.00 | 51 | 1026.7 |
| 20260502101525 | 62 | 0 | 1.0 | 4.0 | 0.00 | 0.00 | 0.00 | 48 | 1026.9 |
| 20260502100827 | 63 | 0 | 1.0 | 2.0 | 0.00 | 0.00 | 0.00 | 48 | 1027.0 |
| 20260502100129 | 63 | 0 | 1.0 | 3.0 | 0.00 | 0.00 | 0.00 | 46 | 1027.0 |
| 20260502091246 | 61 | 0 | 1.0 | 2.0 | 0.00 | 0.00 | 0.00 | 43 | 1027.3 |
| 20260502090548 | 60 | 0 | 1.0 | 1.0 | 0.00 | 0.00 | 0.00 | 46 | 1027.4 |
| 20260502071433 | 59 | 0 | 1.0 | 3.0 | 0.00 | 0.00 | 0.00 | 46 | 1027.6 |
| 20260502070735 | 58 | 0 | 2.0 | 3.0 | 0.00 | 0.00 | 0.00 | 46 | 1027.6 |
| 20260502070038 | 58 | 0 | 1.0 | 3.0 | 0.00 | 0.00 | 0.00 | 47 | 1027.6 |
| 20260502065341 | 58 | 0 | 2.0 | 3.0 | 0.00 | 0.00 | 0.00 | 48 | 1027.5 |
| 20260502064644 | 58 | 0 | 1.0 | 3.0 | 0.00 | 0.00 | 0.00 | 49 | 1027.5 |
| 20260502063947 | 58 | 0 | 2.0 | 4.0 | 0.00 | 0.00 | 0.00 | 53 | 1027.4 |
| 20260502063250 | 58 | 0 | 1.0 | 4.0 | 0.00 | 0.00 | 0.00 | 53 | 1027.4 |
| 20260502062552 | 58 | 0 | 1.0 | 2.0 | 0.00 | 0.00 | 0.00 | 62 | 1027.5 |
| 20260502061855 | 57 | 0 | 2.0 | 5.0 | 0.00 | 0.00 | 0.00 | 60 | 1027.5 |
| 20260502061158 | 57 | 0 | 1.0 | 2.0 | 0.00 | 0.00 | 0.00 | 66 | 1027.4 |
| 20260502060501 | 56 | 0 | 1.0 | 2.0 | 0.00 | 0.00 | 0.00 | 72 | 1027.4 |
| 20260502055804 | 55 | 0 | 1.0 | 3.0 | 0.00 | 0.00 | 0.00 | 71 | 1027.4 |
| 20260502055108 | 55 | 0 | 1.0 | 2.0 | 0.00 | 0.00 | 0.00 | 81 | 1027.4 |
| 20260502054411 | 53 | 0 | 1.0 | 3.0 | 0.00 | 0.00 | 0.00 | 79 | 1027.4 |
| 20260502053714 | 53 | 0 | 1.0 | 3.0 | 0.00 | 0.00 | 0.00 | 81 | 1027.3 |
| 20260502053018 | 51 | 0 | 1.0 | 2.0 | 0.00 | 0.00 | 0.00 | 10 | 1027.3 |
| 20260502052321 | 49 | 0 | 1.0 | 2.0 | 0.00 | 0.00 | 0.00 | 10 | 1027.4 |
| 20260502051625 | 49 | 0 | 1.0 | 2.0 | 0.00 | 0.00 | 0.00 | 10 | 1027.4 |
| 20260502050929 | 48 | 0 | 1.0 | 2.0 | 0.00 | 0.00 | 0.00 | 10 | 1027.4 |
| 20260502050232 | 48 | 0 | 1.0 | 2.0 | 0.00 | 0.00 | 0.00 | 10 | 1027.3 |
| 20260502045536 | 48 | 0 | 1.0 | 2.0 | 0.00 | 0.00 | 0.00 | 10 | 1027.2 |
| 20260502044840 | 48 | 0 | 1.0 | 2.0 | 0.00 | 0.00 | 0.00 | 10 | 1027.2 |
| 20260502044144 | 48 | 0 | 1.0 | 2.0 | 0.00 | 0.00 | 0.00 | 10 | 1027.1 |
| 20260502043447 | 47 | 0 | 1.0 | 2.0 | 0.00 | 0.00 | 0.00 | 10 | 1027.2 |
| 20260502042751 | 46 | 0 | 1.0 | 2.0 | 0.00 | 0.00 | 0.00 | 10 | 1027.2 |
| 20260502042055 | 46 | 0 | 1.0 | 2.0 | 0.00 | 0.00 | 0.00 | 10 | 1027.2 |
| 20260502041359 | 45 | 0 | 1.0 | 1.0 | 0.00 | 0.00 | 0.00 | 10 | 1027.2 |
| 20260502040703 | 44 | 0 | 1.0 | 1.0 | 0.00 | 0.00 | 0.00 | 10 | 1027.2 |
| 20260502040007 | 43 | 0 | 1.0 | 1.0 | 0.00 | 0.00 | 0.00 | 10 | 1027.2 |
| 20260502035311 | 43 | 0 | 1.0 | 1.0 | 0.00 | 0.00 | 0.00 | 10 | 1027.2 |
| 20260502034615 | 43 | 0 | 1.0 | 1.0 | 0.00 | 0.00 | 0.00 | 10 | 1027.2 |
| 20260502033919 | 42 | 0 | 1.0 | 1.0 | 0.00 | 0.00 | 0.00 | 10 | 1027.2 |
| 20260502032528 | 43 | 0 | 1.0 | 2.0 | 0.00 | 0.00 | 0.00 | 10 | 1027.3 |
| 20260502031832 | 42 | 0 | 1.0 | 2.0 | 0.00 | 0.00 | 0.00 | 10 | 1027.3 |
| 20260502031136 | 43 | 0 | 1.0 | 2.0 | 0.00 | 0.00 | 0.00 | 10 | 1027.3 |
| 20260502030440 | 43 | 0 | 1.0 | 1.0 | 0.00 | 0.00 | 0.00 | 10 | 1027.3 |
| 20260502025744 | 42 | 0 | 1.0 | 1.0 | 0.00 | 0.00 | 0.00 | 10 | 1027.4 |
| 20260502025048 | 42 | 0 | 1.0 | 2.0 | 0.00 | 0.00 | 0.00 | 10 | 1027.4 |
| 20260502024352 | 42 | 0 | 1.0 | 2.0 | 0.00 | 0.00 | 0.00 | 10 | 1027.5 |
| 20260502023656 | 43 | 0 | 1.0 | 1.0 | 0.00 | 0.00 | 0.00 | 10 | 1027.6 |
| 20260502023000 | 43 | 0 | 1.0 | 2.0 | 0.00 | 0.00 | 0.00 | 10 | 1027.6 |
| 20260502021608 | 43 | 0 | 1.0 | 2.0 | 0.00 | 0.00 | 0.00 | 10 | 1027.6 |
| 20260502020912 | 43 | 0 | 1.0 | 2.0 | 0.00 | 0.00 | 0.00 | 10 | 1027.6 |
| 20260502020216 | 43 | 0 | 1.0 | 1.0 | 0.00 | 0.00 | 0.00 | 10 | 1027.6 |
| 20260502015520 | 43 | 0 | 1.0 | 2.0 | 0.00 | 0.00 | 0.00 | 10 | 1027.6 |
| 20260502014824 | 44 | 0 | 1.0 | 2.0 | 0.00 | 0.00 | 0.00 | 10 | 1027.6 |
| 20260502014128 | 44 | 0 | 1.0 | 3.0 | 0.00 | 0.00 | 0.00 | 10 | 1027.5 |
| 20260502013432 | 44 | 0 | 1.0 | 2.0 | 0.00 | 0.00 | 0.00 | 10 | 1027.6 |
| 20260502012737 | 43 | 0 | 1.0 | 2.0 | 0.00 | 0.00 | 0.00 | 10 | 1027.6 |
| 20260502012041 | 43 | 0 | 1.0 | 1.0 | 0.00 | 0.00 | 0.00 | 10 | 1027.7 |
| 20260502011345 | 43 | 0 | 1.0 | 1.0 | 0.00 | 0.00 | 0.00 | 10 | 1027.7 |
| 20260502010649 | 43 | 0 | 1.0 | 2.0 | 0.00 | 0.00 | 0.00 | 10 | 1027.8 |
| 20260502005953 | 43 | 0 | 1.0 | 1.0 | 0.00 | 0.00 | 0.00 | 10 | 1027.8 |
| 20260502005257 | 43 | 0 | 1.0 | 2.0 | 0.00 | 0.00 | 0.00 | 10 | 1027.9 |
| 20260502004601 | 44 | 0 | 1.0 | 2.0 | 0.00 | 0.00 | 0.00 | 10 | 1027.9 |
| 20260502003905 | 44 | 0 | 1.0 | 2.0 | 0.00 | 0.00 | 0.00 | 10 | 1028.0 |
| 20260502003209 | 44 | 0 | 1.0 | 2.0 | 0.00 | 0.00 | 0.00 | 10 | 1027.9 |
| 20260502002513 | 44 | 0 | 1.0 | 2.0 | 0.00 | 0.00 | 0.00 | 10 | 1027.9 |
| 20260502001817 | 44 | 0 | 1.0 | 2.0 | 0.00 | 0.00 | 0.00 | 10 | 1028.0 |
| 20260502001121 | 44 | 0 | 1.0 | 2.0 | 0.00 | 0.00 | 0.00 | 10 | 1028.0 |
| 20260502000425 | 44 | 0 | 1.0 | 2.0 | 0.00 | 0.00 | 0.00 | 10 | 1028.0 |
| 20260501235729 | 44 | 0 | 1.0 | 2.0 | 0.00 | 0.00 | 0.00 | 10 | 1028.0 |
| 20260501235032 | 44 | 0 | 1.0 | 2.0 | 0.00 | 0.00 | 0.00 | 10 | 1028.0 |
| 20260501234337 | 44 | 0 | 1.0 | 2.0 | 0.00 | 0.00 | 0.00 | 10 | 1027.9 |
| 20260501233640 | 44 | 0 | 1.0 | 3.0 | 0.00 | 0.00 | 0.00 | 10 | 1027.9 |
| 20260501232944 | 44 | 0 | 1.0 | 2.0 | 0.00 | 0.00 | 0.00 | 10 | 1027.9 |
| 20260501232248 | 44 | 0 | 1.0 | 2.0 | 0.00 | 0.00 | 0.00 | 10 | 1028.0 |
| 20260501231552 | 44 | 0 | 1.0 | 3.0 | 0.00 | 0.00 | 0.00 | 10 | 1028.2 |
| 20260501230856 | 44 | 0 | 1.0 | 3.0 | 0.00 | 0.00 | 0.00 | 10 | 1028.2 |
| 20260501230200 | 44 | 0 | 1.0 | 2.0 | 0.00 | 0.00 | 0.00 | 10 | 1028.2 |
| 20260501225504 | 44 | 0 | 1.0 | 2.0 | 0.00 | 0.00 | 0.00 | 10 | 1028.2 |
| 20260501224808 | 44 | 0 | 1.0 | 2.0 | 0.00 | 0.00 | 0.00 | 10 | 1028.2 |
| 20260501224112 | 44 | 0 | 1.0 | 2.0 | 0.00 | 0.00 | 0.00 | 10 | 1028.2 |
| 20260501223416 | 44 | 0 | 1.0 | 2.0 | 0.00 | 0.00 | 0.00 | 10 | 1028.3 |
| 20260501222720 | 44 | 0 | 1.0 | 2.0 | 0.00 | 0.00 | 0.00 | 10 | 1028.3 |
| 20260501222024 | 44 | 0 | 1.0 | 2.0 | 0.00 | 0.00 | 0.00 | 10 | 1028.3 |
| 20260501221328 | 44 | 0 | 1.0 | 2.0 | 0.00 | 0.00 | 0.00 | 10 | 1028.4 |
| 20260501220632 | 44 | 0 | 1.0 | 3.0 | 0.00 | 0.00 | 0.00 | 10 | 1028.3 |
| 20260501215936 | 44 | 0 | 1.0 | 2.0 | 0.00 | 0.00 | 0.00 | 10 | 1028.3 |
| 20260501215240 | 45 | 0 | 1.0 | 2.0 | 0.00 | 0.00 | 0.00 | 10 | 1028.4 |
| 20260501214544 | 45 | 0 | 1.0 | 3.0 | 0.00 | 0.00 | 0.00 | 10 | 1028.4 |